TimeMST,TemperatureF,Dew PointF,Humidity,Sea Level PressureIn,VisibilityMPH,Wind Direction,Wind SpeedMPH,Gust SpeedMPH,PrecipitationIn,Events,Conditions,WindDirDegrees,DateUTC
12:48 AM,21.0,19.0,92,30.36,-9999.0,West,4.6,-,N/A,,Unknown,280,2013-11-07 07:48:00
1:48 AM,21.0,18.0,88,30.37,-9999.0,West,3.5,-,N/A,,Unknown,280,2013-11-07 08:48:00
2:48 AM,19.0,16.0,88,30.36,-9999.0,West,5.8,-,N/A,,Unknown,270,2013-11-07 09:48:00
3:48 AM,21.0,18.0,88,30.36,-9999.0,WNW,6.9,-,N/A,,Unknown,290,2013-11-07 10:48:00
4:48 AM,16.0,14.0,92,30.38,-9999.0,West,6.9,-,N/A,,Unknown,280,2013-11-07 11:48:00
5:48 AM,16.0,12.9,88,30.39,-9999.0,West,4.6,-,N/A,,Unknown,270,2013-11-07 12:48:00
6:48 AM,17.1,12.9,84,30.38,-9999.0,Calm,Calm,-,N/A,,Unknown,0,2013-11-07 13:48:00
7:48 AM,17.1,14.0,88,30.38,-9999.0,Calm,Calm,-,N/A,,Unknown,0,2013-11-07 14:48:00
8:48 AM,26.1,21.0,81,30.35,-9999.0,Calm,Calm,-,N/A,,Unknown,0,2013-11-07 15:48:00
9:48 AM,33.1,25.0,72,30.32,-9999.0,East,3.5,-,N/A,,Unknown,100,2013-11-07 16:48:00
10:48 AM,41.0,23.0,49,30.28,-9999.0,East,4.6,-,N/A,,Unknown,100,2013-11-07 17:48:00
11:48 AM,46.0,23.0,40,30.23,-9999.0,SE,9.2,-,N/A,,Unknown,130,2013-11-07 18:48:00
12:48 PM,48.9,19.9,32,30.16,-9999.0,South,11.5,-,N/A,,Unknown,170,2013-11-07 19:48:00
1:48 PM,50.0,21.0,32,30.11,-9999.0,South,12.7,21.9,N/A,,Unknown,190,2013-11-07 20:48:00
2:48 PM,48.0,23.0,37,30.07,-9999.0,South,13.8,-,N/A,,Unknown,170,2013-11-07 21:48:00
3:48 PM,46.9,24.1,41,30.03,-9999.0,SSE,10.4,-,N/A,,Unknown,150,2013-11-07 22:48:00
4:48 PM,45.0,26.1,48,30.01,-9999.0,SE,5.8,-,N/A,,Unknown,130,2013-11-07 23:48:00
5:48 PM,45.0,25.0,46,29.95,-9999.0,ESE,6.9,-,N/A,,Unknown,120,2013-11-08 00:48:00
6:48 PM,45.0,26.1,48,29.91,-9999.0,SE,8.1,-,N/A,,Unknown,130,2013-11-08 01:48:00
7:48 PM,44.1,25.0,47,29.85,-9999.0,ESE,4.6,-,N/A,,Unknown,120,2013-11-08 02:48:00
8:48 PM,43.0,26.1,51,29.78,-9999.0,ESE,8.1,-,N/A,,Unknown,120,2013-11-08 03:48:00
9:48 PM,43.0,27.0,53,29.73,-9999.0,ESE,6.9,-,N/A,,Unknown,110,2013-11-08 04:48:00
10:48 PM,44.1,30.0,58,29.68,-9999.0,Calm,Calm,-,N/A,,Unknown,0,2013-11-08 05:48:00
11:48 PM,43.0,35.1,74,29.64,-9999.0,WSW,4.6,-,0.01,,Unknown,250,2013-11-08 06:48:00